Wetterdaten: Montag, 22.12.2014
Datum Zeit Temp. A. Feuchte A. Luftdruck Regen Wind Richtung Richtung Sonnenschein ET UV Solar Taupunkt Windchill Windben Empfang
22.12.2014 00:00 3,2 C 69 % 1028,6 hPa 0,0 l/m 0,3 km/h (0 Bft) S 180 0 min 0,000 mm 0,0 UV-I 0 W/m -1,9 C 3,2 C 4,0 km/h (1 Bft) 0,00 %
22.12.2014 01:00 3,3 C 70 % 1028,2 hPa 0,0 l/m 0,0 km/h (0 Bft) O 90 0 min 0,000 mm 0,0 UV-I 0 W/m -1,6 C 3,3 C 0,0 km/h (0 Bft) 0,00 %
22.12.2014 02:00 3,1 C 77 % 1027,9 hPa 0,0 l/m 2,9 km/h (1 Bft) N-NW 345 0 min 0,000 mm 0,0 UV-I 0 W/m -0,5 C 3,1 C 4,0 km/h (1 Bft) 0,00 %
22.12.2014 03:00 3,2 C 71 % 1027,5 hPa 0,0 l/m 7,9 km/h (2 Bft) S-SW 210 0 min 0,000 mm 0,0 UV-I 0 W/m -1,5 C 1,8 C 11,9 km/h (2 Bft) 0,00 %
22.12.2014 04:00 3,2 C 71 % 1026,8 hPa 0,0 l/m 1,8 km/h (1 Bft) S 180 0 min 0,000 mm 0,0 UV-I 0 W/m -1,5 C 3,2 C 4,0 km/h (1 Bft) 0,00 %
22.12.2014 05:00 3,3 C 70 % 1025,7 hPa 0,0 l/m 0,6 km/h (0 Bft) N-NW 330 0 min 0,000 mm 0,0 UV-I 0 W/m -1,6 C 3,3 C 4,0 km/h (1 Bft) 0,00 %
22.12.2014 06:00 3,0 C 72 % 1026,5 hPa 0,0 l/m 4,7 km/h (1 Bft) S-SW 210 0 min 0,000 mm 0,0 UV-I 0 W/m -1,5 C 3,0 C 7,9 km/h (2 Bft) 0,00 %
22.12.2014 07:00 2,9 C 71 % 1026,2 hPa 0,0 l/m 2,1 km/h (1 Bft) N-NW 330 0 min 0,000 mm 0,0 UV-I 0 W/m -1,8 C 2,9 C 7,9 km/h (2 Bft) 0,00 %
22.12.2014 08:00 2,9 C 71 % 1026,2 hPa 0,0 l/m 2,9 km/h (1 Bft) SW 230 0 min 0,000 mm 0,0 UV-I 0 W/m -1,8 C 2,9 C 4,0 km/h (1 Bft) 0,00 %
22.12.2014 09:00 3,9 C 66 % 1026,0 hPa 0,0 l/m 6,4 km/h (2 Bft) SW 230 60 min 0,000 mm 1,0 UV-I 123 W/m -1,9 C 3,9 C 11,9 km/h (2 Bft) 0,00 %
22.12.2014 10:00 5,1 C 62 % 1026,1 hPa 0,0 l/m 0,3 km/h (0 Bft) W-SW 240 60 min 0,000 mm 1,0 UV-I 189 W/m -1,6 C 5,1 C 4,0 km/h (1 Bft) 0,00 %
22.12.2014 11:00 6,0 C 60 % 1025,3 hPa 0,0 l/m 9,3 km/h (2 Bft) W-NW 300 60 min 0,000 mm 2,0 UV-I 199 W/m -1,2 C 3,7 C 11,9 km/h (2 Bft) 0,00 %
22.12.2014 12:00 6,7 C 54 % 1023,8 hPa 0,0 l/m 16,6 km/h (3 Bft) SW 230 60 min 0,000 mm 1,0 UV-I 222 W/m -1,9 C 0,4 C 24,1 km/h (4 Bft) 0,00 %
22.12.2014 13:00 7,3 C 53 % 1023,3 hPa 0,0 l/m 3,2 km/h (1 Bft) SW 230 60 min 0,000 mm 1,0 UV-I 234 W/m -1,6 C 7,3 C 7,9 km/h (2 Bft) 0,00 %
22.12.2014 14:00 7,7 C 53 % 1022,9 hPa 0,0 l/m 1,8 km/h (1 Bft) SW 230 60 min 0,000 mm 1,0 UV-I 211 W/m -1,3 C 7,7 C 7,9 km/h (2 Bft) 0,00 %
22.12.2014 15:00 8,7 C 52 % 1021,7 hPa 0,0 l/m 11,6 km/h (2 Bft) SW 230 60 min 0,000 mm 1,0 UV-I 210 W/m -0,6 C 5,2 C 19,8 km/h (3 Bft) 0,00 %
22.12.2014 16:00 9,1 C 47 % 1021,6 hPa 0,0 l/m 10,5 km/h (2 Bft) SW 230 0 min 0,000 mm 0,0 UV-I 0 W/m -1,6 C 6,3 C 15,8 km/h (3 Bft) 0,00 %
22.12.2014 17:00 9,0 C 46 % 1021,2 hPa 0,0 l/m 7,9 km/h (2 Bft) SW 230 0 min 0,000 mm 0,0 UV-I 0 W/m -2,0 C 7,9 C 19,8 km/h (3 Bft) 0,00 %
22.12.2014 18:00 8,7 C 47 % 1021,3 hPa 0,0 l/m 1,8 km/h (1 Bft) SW 230 0 min 0,000 mm 0,0 UV-I 0 W/m -2,0 C 8,7 C 4,0 km/h (1 Bft) 0,00 %
22.12.2014 19:00 8,7 C 44 % 1021,3 hPa 0,0 l/m 0,6 km/h (0 Bft) SW 230 0 min 0,000 mm 0,0 UV-I 0 W/m -2,9 C 8,7 C 4,0 km/h (1 Bft) 0,00 %
22.12.2014 20:00 9,7 C 40 % 1021,1 hPa 0,0 l/m 5,5 km/h (1 Bft) SW 230 0 min 0,000 mm 0,0 UV-I 0 W/m -3,2 C 9,7 C 7,9 km/h (2 Bft) 0,00 %
22.12.2014 21:00 8,6 C 43 % 1021,7 hPa 0,0 l/m 3,2 km/h (1 Bft) SW 230 0 min 0,000 mm 0,0 UV-I 0 W/m -3,3 C 8,6 C 7,9 km/h (2 Bft) 0,00 %
22.12.2014 22:00 8,2 C 45 % 1022,1 hPa 0,0 l/m 10,5 km/h (2 Bft) SW 230 0 min 0,000 mm 0,0 UV-I 0 W/m -3,0 C 5,3 C 11,9 km/h (2 Bft) 0,00 %
22.12.2014 23:00 8,2 C 47 % 1022,1 hPa 0,0 l/m 0,3 km/h (0 Bft) SW 230 0 min 0,000 mm 0,0 UV-I 0 W/m -2,4 C 8,2 C 4,0 km/h (1 Bft) 0,00 %
_ Min-Zeit 07:00 20:00 20:00 - 01:00 - - - - - - 21:00 12:00 01:00 00:00
Minimum _ 2,9 C 40 % 1021,1 hPa - 0,0 km/h (0 Bft) - - - - - - -3,3 C 0,4 C 0,0 km/h (0 Bft) 0,00 %
_ Max-Zeit 20:00 02:00 00:00 00:00 12:00 - - 09:00 00:00 11:00 13:00 02:00 20:00 12:00 00:00
Maximum _ 9,7 C 77 % 1028,6 hPa 0,0 l/m 16,6 km/h
SW (3 Bft)
- - 60 min 0,000 mm 2,0 UV-I 234 W/m -0,5 C 9,7 C 24,1 km/h
SW (4 Bft)
0,00 %
Durchschnitt _ 6,1 C 58 % 1024,2 hPa #0,0 l/m 4,9 km/h (1 Bft) SW - #7:00 h #0,000 mm 1,1 UV-I 198 W/m -1,8 C 5,2 C 9,0 km/h (2 Bft) 0,00 %